Location: Cicognara
(44.9500°N, 10.4667°E)
Time: 06:51:51
(UTC+00:00)

Cosmos 1892 Rocket - Pass Details

Date: 20 June 2021
Orbit: 606 x 633 km, 82.5° (Epoch: 28 July)

Event Time Altitude Azimuth Distance (km) Brightness Sun altitude
Exits shadow 21:43:58 38° 144° (SE) 953 4.0 -18.2°
Maximum altitude 21:45:15 52° 94° (E) 781 3.8 -18.3°
Drops below altitude 10° 21:49:35 10° 18° (NNE) 2,017 6.9 -18.6°
Sets 21:51:53 0° 14° (NNE) 2,933 7.9 -18.7°
